ANIK F2

Last updated on Tue Oct 08 2024 00:02:37 GMT+0000 (Coordinated Universal Time)

1 28378U 04027A 24281.39771634 -.00000038 00000+0 00000+0 0 9998 2 28378 1.6875 87.3798 0002057 76.5663 244.6937 1.00272371 35068
UTC large
Height (km)
Speed (km/s)
/
Latitude / Longitude
Inclination (degrees)
Orbital Period (minutes)
Azimuth
Elevation
Range (km)
Doppler Factor

Next 0 passes for location: London (51.5072 / 0.1276)

Sorry there are no passes over London.